Flag for U.S.A. Weather past 2 weeks in Topeka, Kansas, U.S.A.

Now
83 °F

Clear.


Feels Like: 86 °F
Forecast: 78 / 98 °F
Wind: 7 mph from Southwest

Location: Philip Billard Municipal Airport

Current Time: Jul 26, 2014 at 7:08:25 AM

Latest Report: Jul 26, 2014 at 5:53 AM


Visibility: 10 mi

Pressure: 29.75 "Hg

Humidity: 61%

Dew point: 68 °F

Location of TopekaLocation

Historic Weather in Topeka — Graph

°F

Topeka temperature yesterday

Maximum temperature yesterday: 102 °F (at 3:53 PM)
Minimum temperature yesterday: 75 °F (at 1:53 AM)
Average temperature yesterday: 88 °F

Past Weeks' High & Low Weather Summary

 TemperatureHumidityPressure
High102 °F (Jul 22, 6:53 PM)96% (Jul 14, 4:53 AM)30.17 "Hg (Jul 14, 4:53 AM)
Low52 °F (Jul 16, 4:58 AM)32% (Jul 25, 3:53 PM)29.71 "Hg (Jul 25, 6:53 PM)
Average78 °F65%29.99 "Hg
* Reported Jul 11 5:53 AM — Jul 26 5:53 AM, Topeka, Weather by CustomWeather, © 2014

Note: Actual official high and low records may vary slightly from our data, if they occured in-between our weather recording intervals... More about our weather records

Advertising

Topeka weather history for previous 24 hours

 ConditionsComfort  
Time TempWeatherWind HumidityBarometerVisibility
5:53 AM
Jul 26
83 °FClear.7 mph61%29.75 "Hg10 mi
4:53 AM84 °FClear.6 mph61%29.75 "Hg10 mi
3:53 AM84 °FClear.12 mph65%29.75 "Hg10 mi
2:53 AM84 °FClear.9 mph70%29.75 "Hg10 mi
1:53 AM85 °FClear.8 mph70%29.75 "Hg10 mi
12:53 AM86 °FClear.10 mph67%29.76 "Hg10 mi
11:53 PM
Jul 25
87 °FClear.10 mph63%29.76 "Hg10 mi
10:53 PM88 °FClear.14 mph61%29.75 "Hg10 mi
9:53 PM90 °FClear.12 mph57%29.74 "Hg10 mi
8:53 PM93 °FSunny.17 mph47%29.72 "Hg10 mi
7:53 PM95 °FSunny.17 mph46%29.72 "Hg10 mi
6:53 PM97 °FSunny.12 mph45%29.71 "Hg10 mi
5:53 PM99 °FSunny.14 mph38%29.72 "Hg10 mi
4:53 PM101 °FSunny.15 mph33%29.72 "Hg10 mi
3:53 PM102 °FSunny.18 mph32%29.73 "Hg10 mi
2:53 PM101 °FSunny.14 mph34%29.73 "Hg10 mi
1:53 PM100 °FSunny.10 mph35%29.76 "Hg10 mi
12:53 PM98 °FSunny.15 mph40%29.76 "Hg10 mi
11:53 AM91 °FSunny.14 mph50%29.78 "Hg10 mi
10:53 AM87 °FSunny.10 mph57%29.80 "Hg10 mi
9:53 AM85 °FSunny.13 mph63%29.81 "Hg10 mi
8:53 AM82 °FSunny.13 mph70%29.83 "Hg10 mi
7:53 AM79 °FSunny.7 mph77%29.84 "Hg10 mi
Weather by CustomWeather, © 2014

See weather overviewHow to use our weather pages